• Join FlightAware (Why Join?)
  • Login
  • US Flag 
01:05PM EDT


 

Airport Tracker/Info


-or-


 

Live Flight TrackerFlight Track Log ✈ KAP720 ✈ 10-May-2013 ✈ KALB - KOGS

Flight Track Log - Related Links

Times and Time Zones

All times are in EDT time to prevent confusion due to time zone crossing. See the KAP720 flight status page for this flight to view local times or setup timezone preferences in your user account.

Time Position Orientation Groundspeed Altitude Reporting Facility
EDT Latitude Longitude Course Direction KTS MPH feet Rate Location/Type
06:34PM 42.7131 -73.8106 190° South 113 130 1,400  Level Boston Center
06:35PM 42.7189 -73.8558 280° West 144 166 1,900 540 Climbing Boston Center
06:36PM 42.7561 -73.8794 335° Northwest 144 166 2,500 540 Climbing Boston Center
06:37PM 42.7889 -73.9114 324° Northwest 140 161 3,100 600 Climbing Boston Center
06:38PM 42.8261 -73.9406 330° Northwest 139 160 3,800 540 Climbing Boston Center
06:39PM 42.8569 -73.9667 328° Northwest 136 157 4,300 480 Climbing Boston Center
06:40PM 42.8919 -73.9931 331° Northwest 145 167 4,800 480 Climbing Boston Center
06:41PM 42.9292 -74.0225 330° Northwest 148 170 5,300 480 Climbing Boston Center
06:42PM 42.9642 -74.0517 329° Northwest 149 171 5,800 480 Climbing Boston Center
06:43PM 42.9992 -74.0781 331° Northwest 152 175 6,300 480 Climbing Boston Center
06:44PM 43.0344 -74.1047 331° Northwest 147 169 6,800 540 Climbing Boston Center
06:45PM 43.0653 -74.1311 328° Northwest 150 173 7,300 420 Climbing Boston Center
06:46PM 43.0900 -74.1489 332° Northwest 150 173 7,700 360 Climbing Boston Center
06:47PM 43.1372 -74.1900 328° Northwest 155 178 8,100 180 Climbing Boston Center
06:48PM 43.1783 -74.2253 328° Northwest 166 191 8,100  Level Boston Center
06:49PM 43.2114 -74.2519 330° Northwest 166 191 8,100  Level Boston Center
06:50PM 43.2608 -74.2906 330° Northwest 166 191 8,100  Level Boston Center
06:51PM 43.2978 -74.3231 327° Northwest 166 191 8,100  Level Boston Center
06:52PM 43.3367 -74.3528 331° Northwest 166 191 8,100  Level Boston Center
06:53PM 43.3781 -74.3853 330° Northwest 166 191 8,100 -60 Level Boston Center
06:54PM 43.4189 -74.4211 327° Northwest 166 191 8,000 -60 Descending Boston Center
06:55PM 43.4664 -74.4569 331° Northwest 166 191 8,000  Level Boston Center
06:56PM 43.5053 -74.4869 331° Northwest 166 191 8,000  Level Boston Center
06:57PM 43.5444 -74.5197 329° Northwest 166 191 8,000  Level Boston Center
06:58PM 43.5792 -74.5494 328° Northwest 166 191 8,000  Level Boston Center
06:59PM 43.6286 -74.5886 330° Northwest 166 191 8,000  Level Boston Center
07:00PM 43.6594 -74.6125 331° Northwest 166 191 8,000  Level Boston Center
07:01PM 43.7044 -74.6544 326° Northwest 166 191 8,000  Level Boston Center
07:02PM 43.7433 -74.6847 331° Northwest 166 191 8,000  Level Boston Center
07:03PM 43.7825 -74.7178 329° Northwest 166 191 8,000  Level Boston Center
07:04PM 43.8236 -74.7453 334° Northwest 166 191 8,000  Level Boston Center
07:05PM 43.8625 -74.7783 329° Northwest 166 191 8,000  Level Boston Center
07:06PM 43.8911 -74.8025 329° Northwest 161 185 8,000  Level Boston Center
07:07PM 43.9361 -74.8389 330° Northwest 161 185 8,000  Level Boston Center
07:08PM 43.9711 -74.8692 328° Northwest 161 185 8,000  Level Boston Center
07:09PM 44.0078 -74.8994 329° Northwest 161 185 8,000  Level Boston Center
07:10PM 44.0386 -74.9239 330° Northwest 156 180 8,000  Level Boston Center
07:11PM 44.0733 -74.9542 328° Northwest 156 180 8,000  Level Boston Center
07:12PM 44.1183 -74.9936 328° Northwest 156 180 8,000  Level Boston Center
07:13PM 44.1553 -75.0242 329° Northwest 156 180 8,000  Level Boston Center
07:14PM 44.1839 -75.0458 331° Northwest 156 180 8,000 -480 Level Boston Center
07:15PM 44.2350 -75.0886 329° Northwest 168 193 7,100 -780 Descending Boston Center
07:16PM 44.2800 -75.1253 330° Northwest 174 200 6,500 -660 Descending Boston Center
07:17PM 44.3269 -75.1653 329° Northwest 185 213 5,800 -660 Descending Boston Center
07:18PM 44.3781 -75.2083 329° Northwest 185 213 5,200 -600 Descending Boston Center